Regional Weather Roundup
Issued by NWS

Home | Current Version | Previous Version | Graphics & Text | Print | Product List | Glossary On
Versions: 1 2 3 4 5 6 7 8 9 10 11 12 13 14 15 16 17 18 19 20 21 22 23 24 25 26 27 28 29 30 31 32 33 34 35 36 37 38 39 40 41 42 43 44 45 46 47 48 49 50
000
ASUS45 KPSR 011100
RWRAZ

PRELIMINARY ARIZONA REGIONAL HOURLY WEATHER ROUNDUP
NATIONAL WEATHER SERVICE PHOENIX AZ
400 AM MST MON SEP 01 2014

NOTE: FAIR INDICATES FEW OR NO CLOUDS BELOW 12,000 FEET WITH NO
SIGNIFICANT WEATHER AND/OR OBSTRUCTIONS TO VISIBILITY.

AZZ001>003-036-011200-
NORTHWEST ARIZONA

CITY           SKY/WX    TMP DP  RH WIND       PRES   REMARKS
KINGMAN        CLEAR     70  43  37 VRB3      29.93S
$$

AZZ004>008-015-016-018-011200-
NORTH CENTRAL ARIZONA

CITY           SKY/WX    TMP DP  RH WIND       PRES   REMARKS
GRAND CANYON     N/A    N/A N/A N/A MISG        N/A
WILLIAMS       CLEAR     55  41  58 S7        30.26S
PRESCOTT       CLEAR     62  44  51 S7        30.08S
FLAGSTAFF      CLEAR     49  41  74 SW3       30.23S
PAYSON         CLEAR     63  41  45 CALM      30.12S
PAGE           CLEAR     74  32  21 CALM      29.98R
$$

AZZ009>014-017-011200-
NORTHEAST ARIZONA

CITY           SKY/WX    TMP DP  RH WIND       PRES   REMARKS
WINSLOW        NOT AVBL
SAINT JOHNS    CLEAR     61  40  45 S5        30.14R
WINDOW ROCK    CLEAR     65  38  36 VRB3      30.19S
$$

AZZ023-011200-
GREATER PHOENIX AREA

CITY           SKY/WX    TMP DP  RH WIND       PRES   REMARKS
PHOENIX        CLEAR     84  46  26 E10       29.79R
DEER VALLEY    CLEAR     84  43  23 E6        29.81S
SCOTTSDALE     CLEAR     84  44  24 CALM      29.83S
MESA-GATEWAY   CLEAR     77  45  31 SE8       29.84S
$$

AZZ027-028-011200-
SOUTHWEST MARICOPA COUNTY AND PINAL COUNTY

CITY           SKY/WX    TMP DP  RH WIND       PRES   REMARKS
CASA GRANDE    CLEAR     75  37  25 CALM      29.84S
$$

AZZ503-504-507>509-011200-
SOUTHEAST ARIZONA

CITY           SKY/WX    TMP DP  RH WIND       PRES   REMARKS
TUCSON         CLEAR     75  47  36 SE9       29.95S
NOGALES        CLEAR     62  50  64 N3        30.03F
SIERRA VISTA   CLEAR     70  50  49 S7        30.08S
SAFFORD        CLEAR     68  41  37 SE5       29.95S
$$

AZZ020-021-025-026-031-011200-
SOUTHWEST ARIZONA

CITY           SKY/WX    TMP DP  RH WIND       PRES   REMARKS
YUMA           CLEAR     87  64  46 SE10      29.69S
$$

CAZ031-033-041-043-047-048-061-011200-
SOUTHERN CALIFORNIA

CITY           SKY/WX    TMP DP  RH WIND       PRES   REMARKS
DOWNTOWN L.A.  CLOUDY    71  64  78 CALM      29.80S
L.A. AIRPORT   MOCLDY    70  64  81 E5        29.80F
SAN DIEGO      MOCLDY    68  63  84 S10       29.82F
BURBANK        CLOUDY    69  64  84 S3        29.81F
ONTARIO        CLEAR     68  64  87 CALM      29.82F
RIVERSIDE      CLEAR     68  64  87 CALM      29.82F
PALM SPRINGS   CLEAR     81  53  37 CALM      29.71S
IMPERIAL       CLEAR     79  64  60 CALM      29.67S
BLYTHE         CLEAR     85  50  29 S9        29.69S
$$

NVZ020-UTZ003-011200-
SOUTHERN NEVADA-UTAH

CITY           SKY/WX    TMP DP  RH WIND       PRES   REMARKS
LAS VEGAS      NOT AVBL
SALT LAKE CITY CLEAR     57  40  52 SE8       30.00S
$$

NMZ009-TXZ055-011200-
NEW MEXICO-WEST TEXAS

CITY           SKY/WX    TMP DP  RH WIND       PRES   REMARKS
ALBUQUERQUE    CLEAR     66  40  38 SE6       30.08S
EL PASO        CLEAR     77  41  27 SW8       29.96S
$$


........................KEY........................
SKY/WX - SKY CONDITION/WEATHER
TMP    - TEMPERATURE IN FAHRENHEIT
DP     - DEW POINT IN FAHRENHEIT
RH     - RELATIVE HUMIDITY IN PERCENT
WIND   - DIRECTION AND SPEED IN MILES PER HOUR (MPH)
VRB    - VARIABLE WIND DIRECTION
PRES   - MEAN SEA LEVEL PRESSURE IN INCHES OF MERCURY
         F - FALLING PRESSURE   R - RISING PRESSURE
         S - STEADY PRESSURE
VSB    - VISIBILITY IN MILES
HX     - HEAT INDEX IN FAHRENHEIT
WCI    - WIND CHILL INDEX IN FAHRENHEIT
TC     - TEMPERATURE IN CELSIUS WHICH IS ALSO KNOWN AS
         TEMPERATURE IN CENTIGRADE
AFB    - AIR FORCE BASE
         LUKE AFB IS LUKE AIR FORCE BASE
         DAVIS-MONTHAN IS DAVIS-MONTHAN AIR FORCE BASE
NAS    - NAVAL AIR STATION
         EL CENTRO NAS IS EL CENTRO NAVAL AIR STATION
N/A    - NOT AVAILABLE


USA.gov is the U.S. government's official web portal to all federal, state and local government web resources and services.